Regional Weather Roundup
Issued by NWS Glasgow, MT

Home | Current Version | Previous Version | Text Only | Print | Product List | Glossary On
Versions: 1 2 3 4 5 6 7 8 9 10 11 12 13 14 15 16 17 18 19 20 21 22 23 24 25 26 27 28 29 30 31 32 33 34 35 36 37 38 39 40 41 42 43 44 45 46 47 48 49 50
000
ASUS45 KGGW 021915
RWRGGW
HOURLY REGIONAL WEATHER ROUNDUP FOR NORTHEAST MONTANA
NATIONAL WEATHER SERVICE GLASGOW MONTANA
100 PM MDT TUE JUN 02 2015

NOTE: "FAIR" INDICATES FEW OR NO CLOUDS BELOW 12,000 FEET WITH NO
SIGNIFICANT WEATHER AND/OR OBSTRUCTIONS TO VISISBILITY.

NORTHEAST MONTANA


CITY           SKY/WX    TMP DP  RH WIND       PRES   REMARKS
GLASGOW        LGT RAIN  55  51  86 N10       29.89R FOG
PLENTYWOOD       N/A     56  52  86 NE18G26     N/A
WOLF POINT     RAIN      58  53  84 N15       29.85R
JORDAN           N/A     57  52  83 N12       29.89S
WINNETT          N/A     57  49  74 NE7         N/A
SIDNEY         CLOUDY    63  55  77 SW13      29.77S
GLENDIVE       CLOUDY    61  54  77 W18       29.84R
MALTA            N/A     58  52  80 N5          N/A
SCOBEY           N/A     61  45  55 N16G24    29.87S
OPHEIM           N/A     57  43  58 N3        29.73S

FORT PECK REPORTS


CITY           SKY/WX    TMP DP  RH WIND       PRES   REMARKS
FORT PECK        N/A     55  55 100 NW10        N/A
THE PINES        N/A     55  52  89 N7G17       N/A

SOUTHEAST MONTANA


CITY           SKY/WX    TMP DP  RH WIND       PRES   REMARKS
BILLINGS       MOSUNNY   72  51  47 N10       29.88F
MILES CITY     CLOUDY    64  55  72 NW15      29.86S
BAKER          CLOUDY    69  56  62 W17       29.84S
LIVINGSTON     MOSUNNY   67  44  43 SW24G32   29.93F

CENTRAL MONTANA


CITY           SKY/WX    TMP DP  RH WIND       PRES   REMARKS
HAVRE          LGT RAIN  55  51  86 E13       29.94R
LEWISTOWN      MOSUNNY   61  52  72 E15       29.90F
GREAT FALLS    MOSUNNY   66  46  48 SW15      29.87S
CUT BANK       CLOUDY    50  46  86 E22G31    29.92R
HELENA         MOSUNNY   65  49  56 NE7       29.90S
BUTTE          MOSUNNY   64  36  35 W10G17    29.95F
BOZEMAN        MOSUNNY   68  42  38 SW9       29.94F

WESTERN MONTANA


CITY           SKY/WX    TMP DP  RH WIND       PRES   REMARKS
MISSOULA       LGT RAIN  57  51  80 CALM      29.96S
KALISPELL      NOT AVBL

NORTH DAKOTA


CITY           SKY/WX    TMP DP  RH WIND       PRES   REMARKS
WILLISTON      RAIN      58  56  93 NE16G26   29.77F FOG
DICKINSON      PTSUNNY   75  58  55 W5        29.75F
MINOT          CLOUDY    63  60  90 NE14      29.80S
BISMARCK       CLOUDY    74  64  71 N7        29.74F

SOUTHERN SASKATCHEWAN


CITY           SKY/WX    TMP DP  RH WIND       PRES   REMARKS
REGINA         CLOUDY    63  43  48 NE12G17   29.94S
MOOSE JAW      CLOUDY    63  45  51 NE10G18   29.95R
ESTEVAN        LGT RAIN  57  54  88 E14G20    29.88S
SWIFT CURRENT  MOSUNNY   57  45  62 E13G18    29.97R



USA.gov is the U.S. government's official web portal to all federal, state and local government web resources and services.